This is the latest recevied weather packets stored in our database for station/object N1IJV-10. If no packets are shown the sender has not sent any weather packets the latest 10 day(s).
| Time | Temp. | Humidity | Pressure | Rain* | Wind** | Luminosity | Snow |
|---|---|---|---|---|---|---|---|
| 1777850494 | 20° C | 48% | 1005.1 hPa | 0 mm | - | 35 W/m² | - |
| 1777850192 | 20° C | 47% | 1005 hPa | 0 mm | - | 36 W/m² | - |
| 1777849888 | 20° C | 48% | 1005.2 hPa | 0 mm | - | 42 W/m² | - |
| 1777849585 | 20° C | 47% | 1005.3 hPa | 0 mm | - | 39 W/m² | - |
| 1777849283 | 20° C | 47% | 1005.2 hPa | 0 mm | - | 41 W/m² | - |
| 1777848980 | 20° C | 47% | 1005.2 hPa | 0 mm | - | 44 W/m² | - |
| 1777848679 | 20° C | 47% | 1005.3 hPa | 0 mm | - | 59 W/m² | - |
| 1777848377 | 20° C | 47% | 1005.4 hPa | 0 mm | - | 57 W/m² | - |
| 1777848075 | 20° C | 47% | 1005.3 hPa | 0 mm | - | 118 W/m² | - |
| 1777847773 | 20° C | 46% | 1005.4 hPa | 0 mm | - | 74 W/m² | - |
| 1777847468 | 20° C | 45% | 1005.4 hPa | 0 mm | - | 146 W/m² | - |
| 1777847166 | 19.44° C | 46% | 1005.6 hPa | 0 mm | - | 243 W/m² | - |
| 1777846864 | 20° C | 45% | 1005.3 hPa | 0 mm | - | 54 W/m² | - |
| 1777846562 | 20.56° C | 45% | 1005.6 hPa | 0 mm | - | 237 W/m² | - |
| 1777846259 | 20° C | 45% | 1005.5 hPa | 0 mm | - | 239 W/m² | - |
| 1777845955 | 20° C | 45% | 1005.8 hPa | 0 mm | - | 246 W/m² | - |
| 1777845652 | 20° C | 45% | 1005.7 hPa | 0 mm | - | 286 W/m² | - |
| 1777845349 | 20° C | 44% | 1005.7 hPa | 0 mm | - | 161 W/m² | - |
| 1777845046 | 20.56° C | 45% | 1005.8 hPa | 0 mm | - | 311 W/m² | - |
| 1777844745 | 20.56° C | 42% | 1005.7 hPa | 0 mm | - | 314 W/m² | - |
| 1777844441 | 20.56° C | 43% | 1005.8 hPa | 0 mm | - | 375 W/m² | - |
| 1777844139 | 20.56° C | 45% | 1006 hPa | 0 mm | - | 390 W/m² | - |
| 1777843836 | 20.56° C | 47% | 1005.9 hPa | 0 mm | - | 411 W/m² | - |
| 1777843533 | 20° C | 45% | 1006.1 hPa | 0 mm | - | 359 W/m² | - |
| 1777843230 | 18.89° C | 48% | 1006.3 hPa | 0 mm | - | 486 W/m² | - |
* Rain latest hour (hover to see other rain measurements)
** Current wind speed in m/s (hover to see current wind gust speed)